Regional Weather Roundup
Issued by NWS

Home | Current Version | Previous Version | Text Only | Print | Product List | Glossary On
Versions: 1 2 3 4 5 6 7 8 9 10 11 12 13 14 15 16 17 18 19 20 21 22 23 24 25 26 27 28 29 30 31 32 33 34 35 36 37 38 39 40 41 42 43 44 45 46 47 48 49 50
480
ASUS43 KDTX 291610
RWRMI
MICHIGAN HOURLY REGIONAL WEATHER ROUNDUP
NATIONAL WEATHER SERVICE DETROIT/PONTIAC MI
ISSUED BY NATIONAL WEATHER SERVICE GRAND RAPIDS MI
1200 PM EDT THU JUN 29 2017

NOTE: "FAIR" INDICATES FEW OR NO CLOUDS BELOW 12,000 FEET WITH NO
SIGNIFICANT WEATHER AND/OR OBSTRUCTION TO VISIBILITY.

MIZ047>049-052>055-059>063-066>070-074>076-081>083-291700-
SOUTHEAST LOWER MICHIGAN

CITY           SKY/WX    TMP DP  RH WIND       PRES   REMARKS
ADRIAN         CLOUDY    82  64  54 W16G25    29.85F
ALMA           CLOUDY    76  64  66 SW15G30   29.77R
ANN ARBOR      MOSUNNY   80  66  62 SW20G29   29.83S
BAD AXE        CLOUDY    77  65  67 SW16G22   29.77F
DETROIT CITY   CLOUDY    74  64  71 SW12G22   29.83S
DETROIT        CLOUDY    79  65  62 SW17      29.84S
FLINT          CLOUDY    79  64  60 SW16      29.80S
GROSSE ILE     CLOUDY    78  64  63 SW10      29.84S
HILLSDALE      CLOUDY    79  63  57 SW17G33   29.85F
HOWELL         CLOUDY    79  62  56 SW16      29.81S

CITY           SKY/WX    TMP DP  RH WIND       PRES   REMARKS
JACKSON        CLOUDY    80  64  58 SW17G26   29.83S
LANSING        PTSUNNY   82  63  52 SW18G26   29.80R
MASON          MOSUNNY   79  65  62 SW12G22   29.81S
MONROE         CLOUDY    79  64  60 SW16G24   29.84S
MT. CLEMENS    PTSUNNY   73  64  73 SW10      29.81S
PONTIAC        PTSUNNY   76  64  66 SW10G22   29.82R
PORT HOPE        N/A     78  65  63 SW13G20   29.74S
PORT HURON     RAIN      70  61  73 SW5       29.83S
TRI CITIES     MOSUNNY   79  68  69 SW15G28   29.75S
YPSILANTI      CLOUDY    81  67  62 SW20G28   29.83F
$$
MIZ043>046-050>051-056>058-064>065-071>073-077>080-291700-
SOUTHWEST LOWER MICHIGAN

CITY           SKY/WX    TMP DP  RH WIND       PRES   REMARKS
BATTLE CREEK   PTSUNNY   82  64  54 SW20      29.82S
BENTON HARBOR  MOSUNNY   81  60  48 SW22G30   29.81R
BIG RAPIDS     CLOUDY    70  63  78 SW12G18   29.74R
COLDWATER      PTSUNNY   80  64  57 SW17G25   29.84S
HOLLAND        CLOUDY    75  62  64 SW22G30   29.79R
GRAND RAPIDS   CLOUDY    76  64  66 SW20G28   29.77S
KALAMAZOO      CLOUDY    81  62  52 SW13G26   29.81R
MARSHALL       PTSUNNY   80  65  59 SW12G21   29.82S
MOUNT PLEASANT CLOUDY    76  64  67 SW12G21   29.74S
MUSKEGON       CLOUDY    73  63  70 SW18G28   29.77R
STURGIS        PTSUNNY   80  65  61 SW21      29.83F
$$
MIZ016>042-291700-
NORTHERN LOWER MICHIGAN

CITY           SKY/WX    TMP DP  RH WIND       PRES   REMARKS
ALPENA         CLOUDY    72  67  84 S8        29.71S
BEAVER ISLAND  SUNNY     72  64  77 S7G21     29.62F
BELLAIRE       PTSUNNY   74  65  72 SW7       29.66S
CADILLAC       CLOUDY    70  66  88 SW9       29.72R
CHARLEVOIX     PTSUNNY   74  66  78 SW9G18    29.67F
GAYLORD        CLOUDY    72  64  76 SW12      29.70F
HOUGHTON LAKE  CLOUDY    73  66  78 SW8G16    29.72S
MANISTEE       PTSUNNY   73  66  78 SW13      29.69R
OSCODA         CLOUDY    74  65  74 SW9G21    29.72F
PELLSTON       CLOUDY    75  64  68 SW13      29.65F
TRAVERSE CITY  PTSUNNY   75  65  70 SW12G17   29.65S
LUDINGTON      CLOUDY    69  65  88 SW14G20   29.70S
$$
MIZ007>008-015-291700-
EASTERN UPPER MICHIGAN

CITY           SKY/WX    TMP DP  RH WIND       PRES   REMARKS
KINROSS        LGT RAIN  62  61  96 SE8       29.68S FOG
MACKINAC ISLAN CLOUDY    62  62 100 E3        29.66F
NEWBERRY       FOG       62  61  97 S5        29.63F VSB 3/4
S. S. MARIE    LGT RAIN  63  61  93 VRB6      29.68S FOG
$$
MIZ004>006-011>014-085-291700-
CENTRAL UPPER MICHIGAN

CITY           SKY/WX    TMP DP  RH WIND       PRES   REMARKS
MANISTIQUE     CLOUDY    60  57  89 SE8       29.60F FOG
ESCANABA       CLOUDY    67  63  87 S9        29.59R
MENOMINEE      CLOUDY    72  63  73 W9        29.63R
SAWYER-GWINN   CLOUDY    66  64  94 S9        29.58F FOG
$$
MIZ001>003-009>011-084-291700-
WESTERN UPPER MICHIGAN

CITY           SKY/WX    TMP DP  RH WIND       PRES   REMARKS
IRON MOUNTAIN  CLOUDY    66  60  81 W10       29.61R
HOUGHTON       CLOUDY    59  56  89 NW10      29.57F
COPPER HARBOR    N/A     51  50  96 VRB5      29.60R
IRONWOOD       CLOUDY    56  54  93 W16       29.67R
$$

ABBREVIATIONS USED IN REMARKS
   TC - TEMPERATURE IN CELSIUS
  WCI - WIND CHILL INDEX
   HX - HEAT INDEX
  VSB - VISIBILITY





USA.gov is the U.S. government's official web portal to all federal, state and local government web resources and services.